Погода в Репном

Россия / Белгородская область     50°31′53″N   36°30′01″E
темп.,
°C
ветер,
м/с
пор.,
м/с
влажн.,
%
обл.,
%
осадки,
мм/ч
давл.,
гПа
погр.,
м
8 марта, пн
пн800:00−1зюз91592100 0.3 1009938
03:00−1зюз7139299 0.6 1008725
06:00−1зюз7129399 0.4 1007728
09:00−1зюз8138899 0.8 1007852
12:00+1з71079100 0.5 10081042
15:00+1зсз7960100 0.6 10081432
18:00−1зсз496968 0.1 1010450
21:00−3зсз388172 0.2 1011408
9 марта, вт
вт900:00−3з268611 0.0 1012260
03:00−3з368536 0.1 1012485
06:00−4сз478884 0.0 1013458
09:00−5сз577591 0.1 1014685
12:00−4сз576692 0.0 10161024
15:00−4ссз676396 0.1 10181178
18:00−6ссз5769100 0.0 1019901
21:00−7ссз5770100 0.1 1022853
10 марта, ср
ср1000:00−7ссз357498 0.0 1023687
03:00−8сз457784 0.0 1025501
06:00−9ссз34790 0.0 1026298
09:00−8ссз237016 0.0 1027368
12:00−6с335041 0.0 1026752
15:00−4сз224354 0.0 1026991
18:00−4ссз224751 0.0 1025816
21:00−5ссв236125 0.0 1026197
11 марта, чт
чт1100:00−6всв116625 0.0 102641
03:00−6всв116827 0.0 102723
06:00−7всв22733 0.0 102750
09:00−6вюв34626 0.0 1028342
12:00−4юв325031 0.0 1029934
15:00−2вюв324461 0.0 10281313
18:00−3вюв4552100 0.0 1028612
21:00−5юв695863 0.0 1029541
12 марта, пт
пт1200:00−5юв59570 0.0 1029574
03:00−6ююв610583 0.0 1028537
06:00−6ююв7125889 0.0 1027586
09:00−4ююв8135695 0.0 1025811
12:00−2ю101445100 0.0 10231270
15:00−1ю101540100 0.1 10211254
18:00−2ю111760100 0.3 10181106
21:00−4ю111792100 1.9 10161073